Weather History for Buffalo, WY

Change the Weather History Date:

Monday, August 26, 2013

  Actual Average Record
Temperature  
Mean Temperature 80 °F 67 °F  
Max Temperature 93 °F 82 °F 95 °F (2010)
Min Temperature 67 °F 53 °F 42 °F (2004)
Degree Days  
Heating Degree Days 0 2  
Month to date heating degree days 0 29  
Since 1 June heating degree days 101 217  
Since 1 July heating degree days 1 54  
Cooling Degree Days 15 4  
Month to date cooling degree days 213 164  
Year to date cooling degree days 558 425  
Since 1 June cooling degree days 548 418  
Growing Degree Days 30 (Base 50)    
Moisture  
Dew Point 41 °F    
Average Humidity 27    
Maximum Humidity 38    
Minimum Humidity 16    
Precipitation  
Precipitation 0.00 in 0.02 in 0.18 in (2002)
Month to date precipitation 0.22 0.73  
Year to date precipitation 4.41 10.19  
Sea Level Pressure  
Sea Level Pressure 29.86 in    
Wind  
Wind Speed 8 mph (NW)    
Max Wind Speed 23 mph    
Max Gust Speed 28 mph    
Visibility 10 miles    
Events      
T = Trace of Precipitation, MM = Missing Value Source: NWS Daily Summary

Daily Weather History Graph

Daily Weather History Graph

Search for Another Location

Airport:

Trip Planner

Search our weather history database for the weather conditions in past years. The results will help you decide how hot, cold, wet, or windy it might be!

Date:

Astronomy

Aug. 26, 2013 Rise Set
Actual Time 6:23 AM MDT 7:53 PM MDT
Civil Twilight 5:52 AM MDT 8:23 PM MDT
Nautical Twilight 5:15 AM MDT 9:00 PM MDT
Astronomical Twilight 4:36 AM MDT 9:39 PM MDT
Moon 10:49 PM MDT (8/26) 12:43 PM MDT (8/26)
Length of Visible Light 14h 30m
Length of Day
13h 30m
Waning Gibbous, 66% of the Moon is Illuminated
Aug 26
Waning Gibbous
Aug 28
Last Quarter
Sep 5
New
Sep 12
First Quarter
Sep 19
Full

Hourly Weather History & Observations

Time (MDT) Temp. Dew Point Humidity Pressure Visibility Wind Dir Wind Speed Gust Speed Precip Events Conditions
12:53 AM 77.0 °F 42.1 °F 29% 29.86 in 10.0 mi Calm Calm - N/A   Clear
1:53 AM 75.9 °F 42.1 °F 30% 29.85 in 10.0 mi South 9.2 mph 17.3 mph N/A   Scattered Clouds
2:53 AM 77.0 °F 39.0 °F 25% 29.83 in 10.0 mi West 6.9 mph - N/A   Clear
3:53 AM 75.0 °F 39.0 °F 27% 29.83 in 10.0 mi West 12.7 mph - N/A   Clear
4:53 AM 71.1 °F 39.9 °F 32% 29.83 in 10.0 mi ESE 5.8 mph - N/A   Clear
5:53 AM 68.0 °F 39.9 °F 36% 29.83 in 10.0 mi SSW 4.6 mph - N/A   Clear
6:53 AM 69.1 °F 39.9 °F 35% 29.85 in 10.0 mi West 6.9 mph - N/A   Clear
7:53 AM 75.9 °F 39.9 °F 27% 29.86 in 10.0 mi NW 5.8 mph - N/A   Clear
8:53 AM 78.1 °F 42.1 °F 28% 29.88 in 10.0 mi NNW 6.9 mph - N/A   Clear
9:53 AM 82.0 °F 41.0 °F 23% 29.88 in 10.0 mi North 12.7 mph - N/A   Clear
10:53 AM 82.9 °F 42.1 °F 24% 29.88 in 10.0 mi North 18.4 mph 25.3 mph N/A   Clear
11:53 AM 88.0 °F 39.0 °F 18% 29.88 in 10.0 mi North 19.6 mph 24.2 mph N/A   Clear
12:53 PM 90.0 °F 39.9 °F 17% 29.87 in 10.0 mi North 10.4 mph 20.7 mph N/A   Clear
1:53 PM 91.0 °F 39.0 °F 16% 29.86 in 10.0 mi NNW 10.4 mph 18.4 mph N/A   Clear
2:53 PM 88.0 °F 39.0 °F 18% 29.86 in 10.0 mi NNW 10.4 mph 17.3 mph N/A   Clear
3:53 PM 88.0 °F 39.0 °F 18% 29.86 in 10.0 mi North 4.6 mph - N/A   Mostly Cloudy
4:53 PM 87.1 °F 39.9 °F 19% 29.88 in 10.0 mi Variable 3.5 mph - N/A   Scattered Clouds
5:53 PM 87.1 °F 39.9 °F 19% 29.88 in 10.0 mi NNE 6.9 mph - N/A   Scattered Clouds
6:53 PM 82.9 °F 43.0 °F 24% 29.88 in 10.0 mi Calm Calm - N/A   Partly Cloudy
7:53 PM 80.1 °F 42.1 °F 26% 29.88 in 10.0 mi WSW 3.5 mph - N/A   Clear
8:53 PM 75.9 °F 44.1 °F 32% 29.89 in 10.0 mi West 5.8 mph - N/A   Clear
9:53 PM 78.1 °F 45.0 °F 31% 29.88 in 10.0 mi WSW 10.4 mph - N/A   Overcast
10:53 PM 78.1 °F 44.1 °F 30% 29.87 in 10.0 mi West 6.9 mph - N/A   Mostly Cloudy
11:53 PM 71.1 °F 45.0 °F 39% 29.87 in 10.0 mi NNW 6.9 mph - N/A   Clear